Location: Newark
(40.3500°N, 15.2333°E)
Time: 15:17:44
(UTC+00:00)

Vanguard 1 - Pass Details

Date: 24 January 2020
Orbit: 650 x 3833 km, 34.2° (Epoch: 16 February)

Event Time Altitude Azimuth Distance (km) Brightness Sun altitude
Rises 17:12:36 0° 252° (WSW) 2,952 14.7 -12.6°
Reaches altitude 10° 17:14:49 10° 245° (WSW) 2,067 13.2 -13.0°
Maximum altitude 17:19:05 43° 173° (S) 1,040 10.2 -13.8°
Enters shadow 17:23:29 16° 107° (ESE) 2,262 11.4 -14.6°
Drops below altitude 10° 17:24:50 10° 103° (ESE) 2,783 - -14.8°
Sets 17:28:16 0° 97° (E) 4,134 - -15.5°
